CAPE
2 0 0 0 0 0 0 0 0 12 54 288 209 299 342 313 235 143 216 259 16 3 67 136 197 271 516 1073 1290 1332 1301 1276 1218 1371 1269 1000 856 833 787 736 619 484 489
3 5 1 0 0 0 0 0 0 0 0 0 0 0 0 0 0 0 0 0 0 0 2 10 14 2 14 170 399 680 893 1000 1083 1315 1441 1285 998 830 763 775 715 558 471
0 0 0 0 0 0 0 0 0 0 0 0 0 0 0 0 0 0 0 0 0 0 0 0 0 1 2 5 11 85 264 495 752 901 1023 1119 1138 1048 765 602 686 651 538
0 0 0 0 0 0 0 0 0 0 0 0 0 0 0 0 0 0 1 5 0 0 0 0 0 1 5 5 3 3 6 3 36 231 533 712 899 1048 880 833 546 477 540
0 0 0 0 0 0 0 0 0 0 0 0 0 0 0 0 0 0 0 0 0 0 0 0 0 0 0 1 5 7 6 5 4 6 5 4 355 806 902 811 685 584 476
0 0 0 0 0 0 0 0 0 0 0 0 0 0 0 0 0 1 0 0 0 0 0 0 0 0 0 0 2 6 10 11 11 6 5 4 4 6 576 797 615 529 495
0 0 0 0 0 0 0 0 0 0 0 0 0 0 0 0 0 1 0 0 0 0 0 0 0 1 0 0 2 4 5 3 5 8 10 6 4 3 3 259 655 605 506
0 0 0 0 0 0 0 0 0 0 0 0 0 0 0 0 0 0 0 0 0 0 0 0 0 0 0 0 0 3 3 1 4 7 5 4 5 5 5 3 121 631 604
0 0 0 0 0 0 0 0 0 0 0 0 0 0 0 0 0 0 0 0 0 0 0 0 0 0 0 0 0 0 1 1 2 7 10 9 7 4 7 6 4 3 283
0 0 0 0 0 0 0 0 0 0 0 0 0 0 0 0 0 0 0 0 0 0 0 0 0 0 0 0 0 0 4 1 1 5 4 15 14 14 4 6 4 6 4
0 0 0 0 0 0 0 0 0 0 0 0 0 0 0 0 0 0 0 0 0 0 0 0 0 0 0 0 0 0 4 3 4 2 9 11 11 14 15 15 5 11 4
0 0 0 0 0 0 0 0 0 0 0 0 0 0 0 0 0 0 0 0 0 0 0 0 0 0 0 0 0 1 6 7 10 8 12 9 9 13 11 11 10 13 12
0 0 0 0 0 0 0 0 0 0 0 0 0 0 0 0 0 0 0 0 0 0 0 0 0 0 0 0 0 1 3 7 6 7 9 13 11 9 8 12 7 7 7
0 0 0 0 0 0 0 0 0 0 0 0 0 0 0 0 0 0 0 0 0 0 0 0 0 0 0 0 0 1 3 3 2 6 4 7 8 9 10 11 8 5 4
0 0 0 0 0 0 0 0 0 0 0 0 0 0 0 0 0 0 0 0 0 0 0 0 0 0 0 0 0 1 2 2 2 3 6 5 11 9 14 9 9 10 4
0 0 0 0 0 0 0 0 0 0 0 0 0 0 0 0 0 0 0 0 0 0 0 0 0 0 0 0 0 2 7 0 1 5 7 4 5 5 8 9 8 9 5
0 0 0 0 0 0 0 0 0 0 0 0 0 0 0 0 0 0 0 0 0 0 0 0 0 0 0 0 0 0 2 0 0 3 4 5 1 1 2 10 5 8 5
0 0 0 0 0 0 0 0 0 0 0 0 0 0 0 0 0 0 0 0 0 0 0 0 0 0 0 0 0 0 0 0 0 0 1 4 1 0 0 0 2 2 2
0 0 0 0 0 0 0 0 0 0 0 0 0 0 0 0 0 0 0 0 0 0 0 0 0 0 0 0 0 0 0 0 0 1 0 1 0 0 0 0 2 1 1
0 0 0 0 0 0 0 0 0 0 0 0 0 0 0 0 0 0 0 0 0 0 0 0 0 0 0 0 0 0 0 0 0 0 0 0 0 0 0 0 1 2 1
0 0 0 0 0 0 0 0 0 0 0 0 0 0 0 0 0 0 0 0 0 0 0 0 0 0 0 0 0 0 0 0 0 0 0 0 0 0 0 0 1 0 1
0 0 0 0 0 0 0 0 0 0 0 0 0 0 0 0 0 0 0 0 0 0 0 0 0 0 0 0 0 0 0 0 0 0 0 0 0 0 0 0 2 1 1
0 0 0 0 0 0 0 0 0 0 0 0 0 0 0 0 0 0 0 0 0 0 0 0 0 0 0 0 0 0 0 0 0 0 0 0 0 0 1 0 1 1 0
0 0 0 0 0 0 0 0 0 0 0 0 0 0 0 0 0 0 0 0 0 0 0 0 0 0 0 0 0 0 0 0 0 0 0 0 0 0 0 0 0 0 0
0 0 0 0 0 0 0 0 0 0 0 0 0 0 0 0 0 0 0 0 0 0 0 0 0 0 0 0 0 0 0 0 0 0 0 0 0 0 0 0 0 0 0
0 0 0 0 0 0 0 0 0 0 0 0 0 0 0 0 0 0 0 0 0 0 0 0 0 0 0 0 0 0 0 0 0 0 0 0 0 0 0 0 0 0 0
CIN
-9 0 0 0 0 0 0 0 0 -109 -101 -19 -49 -30 -20 -40 -63 -58 -45 -64 -228 -96 -203 -190 -152 -138 -81 -17 -2 -4 -6 -10 -17 -12 -16 -25 -42 -48 -42 -38 -26 -40 -36
-2 -6 -14 0 0 0 0 0 0 0 0 0 0 0 0 0 0 0 0 0 0 0 -110 -86 -72 -94 -217 -168 -74 -24 -20 -17 -20 -6 -4 -12 -23 -34 -39 -39 -25 -35 -52
0 0 0 0 0 0 0 0 0 0 0 0 0 0 0 0 0 0 0 0 0 0 0 0 0 0 0 0 -321 -180 -93 -32 -19 -12 -4 -2 -7 -14 -33 -35 -28 -30 -30
0 0 0 0 0 0 0 0 0 0 0 0 0 0 0 0 0 0 -2 -26 0 0 0 0 0 0 0 0 0 0 0 0 -173 -126 -39 -16 -8 -9 -32 -16 -31 -32 -29
0 0 0 0 0 0 0 0 0 0 0 0 0 0 0 0 0 0 0 0 0 0 0 0 0 0 0 0 0 0 0 0 0 0 0 0 -68 -4 -9 -26 -32 -34 -40
0 0 0 0 0 0 0 0 0 0 0 0 0 0 0 0 0 -10 0 0 0 0 0 0 0 0 0 0 0 0 0 0 0 0 0 0 0 -35 -16 -2 -20 -19 -24
0 0 0 0 0 0 0 0 0 0 0 0 0 0 0 0 0 -13 0 0 0 0 0 0 0 -5 0 0 0 0 0 0 0 0 0 0 0 0 0 -52 -1 -16 -30
0 0 0 0 0 0 0 0 0 0 0 0 0 0 0 0 0 -2 0 0 0 0 0 -3 0 0 0 0 0 0 0 0 0 0 0 0 0 0 0 0 -90 -1 -10
0 0 0 0 0 0 0 0 0 0 0 0 0 0 0 0 0 0 0 0 0 0 0 0 0 0 0 0 0 0 0 0 0 0 0 0 0 0 0 0 0 -72 -32
0 0 0 0 0 0 0 0 0 0 0 0 0 0 0 0 0 -1 0 0 0 0 0 0 0 0 0 0 0 0 0 0 0 0 0 0 0 0 0 0 0 0 -15
0 0 0 0 0 0 0 0 0 0 0 0 0 0 0 0 0 0 0 0 0 0 0 0 0 0 0 0 0 0 0 0 0 0 0 0 0 0 0 0 0 0 0
0 0 0 0 0 0 0 0 0 0 0 0 0 0 0 0 0 0 0 0 0 0 0 0 0 0 0 0 0 0 0 0 0 0 0 0 0 0 0 0 0 0 0
0 0 0 0 0 0 0 0 0 0 0 0 0 0 0 0 0 0 0 0 0 0 0 0 0 0 0 0 0 0 0 0 0 0 0 0 0 0 0 0 0 0 0
0 0 0 0 0 0 0 0 0 0 0 0 0 0 0 0 0 0 0 0 0 0 0 0 0 0 0 0 0 0 0 0 0 0 0 0 0 0 0 0 0 0 0
0 0 0 0 0 0 0 0 0 0 0 0 0 0 0 0 0 0 0 0 0 0 0 0 0 0 0 0 0 0 -1 0 0 0 0 0 0 0 0 0 0 0 0
0 0 0 0 0 0 0 0 0 0 0 0 0 0 0 0 0 0 0 0 0 0 0 0 0 0 0 0 0 -1 0 0 0 0 0 0 0 0 0 0 0 0 0
0 0 0 0 0 0 0 0 0 0 0 0 0 0 0 0 0 0 0 0 0 0 0 0 0 0 0 0 0 0 -2 0 0 0 0 0 -1 -1 0 0 0 0 0
0 0 0 0 0 0 0 0 0 0 0 0 0 0 0 0 0 0 0 0 0 0 0 0 0 0 0 0 0 0 0 0 0 0 0 0 -1 0 -1 -1 -1 -1 -1
0 0 0 0 0 0 0 0 0 0 0 0 0 0 0 0 0 0 0 0 0 0 0 0 0 0 0 0 0 0 0 0 0 0 0 0 0 -1 0 -1 -1 -1 -1
0 0 0 0 0 0 0 0 0 0 0 0 0 0 0 0 0 0 0 0 0 0 0 0 0 0 0 0 0 0 0 0 0 0 0 0 0 0 0 0 -1 -1 -1
0 0 0 0 0 0 0 0 0 0 0 0 0 0 0 0 0 0 0 0 0 0 0 0 0 0 0 0 0 0 0 0 0 0 0 0 0 0 0 0 -1 -1 -1
0 0 0 0 0 0 0 0 0 0 0 0 0 0 0 0 0 0 0 0 0 0 0 0 0 0 0 0 0 0 0 0 0 0 0 0 0 0 0 0 -1 -1 -1
0 0 0 0 0 0 0 0 0 0 0 0 0 0 0 0 0 0 0 0 0 0 0 0 0 0 0 0 0 0 0 0 0 0 0 0 0 0 0 0 -1 -1 -1
0 0 0 0 0 0 0 0 0 0 0 0 0 0 0 0 0 0 0 0 0 0 0 0 0 0 0 0 0 0 0 0 0 0 0 0 0 0 0 0 -1 0 -1
0 0 0 0 0 0 0 0 0 0 0 0 0 0 0 0 0 0 0 0 0 0 0 0 0 -1 0 0 0 0 0 0 0 0 0 0 0 0 0 0 0 0 0
0 0 0 0 0 0 0 0 0 0 0 0 0 0 0 0 0 0 0 0 0 0 0 0 0 0 0 0 0 0 0 0 0 0 0 0 0 0 0 0 0 0 0
Wind_Speed
13 13 14 15 17 19 19 20 20 21 21 22 21 23 23 24 25 23 22 18 21 21 22 24 25 25 27 27 26 24 23 18 13 10 11 11 11 12 12 12 10 9 10
14 11 11 11 13 15 19 20 21 22 23 23 22 21 22 24 25 25 24 26 23 21 22 24 26 27 28 29 29 28 27 27 23 16 13 14 14 14 14 13 13 13 11
15 16 15 16 17 18 18 20 20 21 21 21 21 21 22 22 21 21 23 21 18 20 21 23 24 26 27 27 27 28 29 29 27 26 24 18 16 17 16 16 15 15 15
16 16 15 17 17 17 18 19 20 21 22 21 22 21 22 22 20 20 18 17 19 20 22 22 23 24 26 26 27 27 28 28 28 28 28 28 24 20 20 19 18 18 17
16 16 16 17 17 16 17 18 19 19 20 21 22 21 18 17 18 17 18 18 20 22 23 22 23 24 26 27 29 29 29 29 29 30 30 31 31 27 24 22 21 21 21
15 14 16 15 16 15 16 17 17 17 17 20 22 20 18 17 17 15 17 18 19 21 23 25 23 25 26 28 31 31 32 32 33 33 33 33 34 35 33 29 27 25 25
14 15 14 14 15 15 16 17 17 16 18 21 20 19 16 14 16 15 16 19 22 23 23 24 27 26 27 29 31 33 34 34 35 36 35 34 35 35 37 35 33 32 30
14 14 14 15 15 14 16 17 17 17 17 19 19 17 17 16 17 15 17 18 21 25 27 24 24 27 29 31 32 35 36 36 37 36 37 37 37 37 37 37 37 33 34
13 14 15 14 14 15 16 17 18 18 17 17 19 18 19 20 19 15 17 21 25 27 25 25 27 28 29 30 33 36 38 39 40 39 38 39 38 38 38 37 36 37 35
11 13 13 14 15 15 16 16 17 18 19 18 17 19 18 19 21 18 21 24 26 26 25 27 29 31 33 35 36 39 39 40 41 41 39 38 38 38 37 38 36 37 37
10 10 11 12 13 15 16 17 18 19 19 19 20 21 20 18 20 21 24 28 27 27 26 28 30 32 35 36 37 41 39 41 41 40 40 38 37 38 38 36 35 37 35
9 10 10 11 12 14 16 17 17 18 18 20 19 21 20 20 20 22 24 26 28 25 26 28 30 32 33 36 37 39 40 40 39 38 38 37 37 35 34 35 33 31 31
12 10 10 11 13 13 15 15 16 18 19 19 20 19 18 18 19 21 23 25 27 25 24 26 28 31 35 34 36 38 38 36 37 35 34 34 32 32 31 31 31 30 30
13 11 11 11 12 12 13 14 16 16 17 18 19 18 17 18 19 21 23 25 27 26 25 27 25 30 34 34 36 36 32 33 34 33 31 31 30 30 29 28 28 28 26
13 12 11 11 12 12 13 14 15 16 17 17 18 18 17 17 19 20 21 21 24 27 27 25 27 28 32 33 34 31 29 32 31 30 29 29 29 28 27 26 26 26 25
15 13 12 11 11 12 12 13 15 16 16 17 17 17 18 18 17 17 18 18 20 23 24 25 26 27 32 32 32 30 29 29 28 28 27 27 27 26 26 24 25 26 25
15 14 12 12 12 12 13 13 14 16 16 16 17 17 16 18 19 18 17 18 19 19 22 24 23 27 29 32 31 29 28 27 25 26 25 25 25 25 25 23 23 23 23
15 14 13 12 12 12 11 12 14 13 15 15 16 18 19 17 17 19 19 19 19 18 21 23 22 27 28 31 29 26 26 27 24 24 24 23 23 23 23 23 22 23 22
14 14 14 13 12 12 12 12 14 13 14 14 16 17 19 20 19 20 20 20 20 21 22 21 22 25 27 30 28 25 23 24 24 23 22 21 20 22 22 23 22 22 21
12 13 12 11 10 11 11 12 12 11 12 14 15 17 19 20 19 22 20 22 21 22 22 22 22 24 27 28 28 27 24 23 26 24 23 20 18 20 22 23 22 21 22
14 11 11 10 10 11 13 10 10 9 10 11 13 14 15 17 19 21 19 21 23 22 23 22 22 24 26 27 27 27 26 23 24 26 22 20 19 17 20 22 22 22 22
12 11 12 10 12 13 11 11 9 8 10 10 11 11 12 16 18 19 20 21 22 22 23 21 21 22 25 26 26 26 27 25 25 25 22 20 19 18 18 21 23 22 21
12 11 10 10 11 12 11 9 7 10 10 10 10 10 12 13 14 15 19 21 22 23 23 20 19 23 24 26 26 25 25 22 23 22 19 20 18 16 18 21 24 23 23
11 12 9 8 9 9 8 6 8 9 10 12 13 13 14 14 16 14 16 18 20 21 22 21 20 21 24 25 25 23 22 18 20 26 18 18 17 14 12 17 20 23 23
11 10 7 7 8 8 6 6 6 8 9 11 13 13 13 12 14 13 14 15 17 18 19 20 20 21 23 25 26 23 23 20 20 22 21 20 19 15 14 20 21 25 21
6 7 6 5 5 5 6 6 6 7 9 10 11 12 12 12 13 12 13 14 15 16 16 17 19 21 22 23 25 24 23 22 21 21 24 20 22 21 19 21 21 25 24
Wind_Direction
342 336 331 325 318 314 314 313 313 312 313 312 316 313 313 310 310 316 323 334 331 328 327 323 323 322 317 315 316 315 310 306 293 267 250 244 235 226 223 220 221 219 208
345 345 337 335 332 325 318 314 314 310 310 311 314 315 314 311 311 311 315 316 328 331 329 326 322 320 318 314 310 311 312 308 302 292 275 259 250 244 234 235 227 225 222
343 336 331 329 323 323 318 315 316 315 315 315 316 317 318 318 319 320 319 323 338 341 338 334 332 330 327 324 322 316 310 308 308 303 298 286 267 255 250 249 243 234 226
344 336 332 328 325 326 323 320 319 315 315 317 316 318 316 319 324 326 332 338 338 340 341 341 341 337 335 333 331 326 324 320 317 313 304 298 290 273 267 260 258 251 247
340 336 332 331 328 331 329 324 323 325 320 320 318 320 325 327 330 337 337 342 340 337 339 344 341 339 336 333 331 329 327 323 320 317 312 307 300 289 279 271 263 257 256
340 340 332 334 336 339 339 333 332 332 332 326 322 322 325 331 334 342 343 346 347 345 341 336 337 338 336 334 330 328 326 323 320 317 313 308 303 300 290 279 274 269 265
340 338 342 338 339 339 339 336 332 332 332 329 326 328 329 339 335 340 339 335 334 336 339 336 331 332 333 335 331 329 326 323 319 316 314 311 307 302 296 290 280 275 273
338 339 340 337 338 342 340 339 337 332 338 339 329 328 325 328 335 338 340 343 339 336 333 334 339 337 333 332 329 328 326 324 321 318 313 309 305 302 299 293 288 279 274
336 336 337 344 340 343 337 337 337 333 337 342 340 331 324 320 322 331 340 340 336 334 341 342 340 339 337 335 330 328 324 322 319 316 312 308 305 302 298 294 291 287 279
332 334 338 338 340 341 338 339 339 337 335 334 338 341 338 332 323 320 330 336 336 338 340 339 336 335 333 331 329 327 323 320 318 315 313 309 305 300 299 294 292 288 280
328 333 335 339 340 339 338 337 335 335 335 336 334 331 332 336 332 324 318 324 334 337 340 339 337 334 333 332 329 325 324 321 317 314 311 310 307 301 295 297 294 288 287
314 323 331 335 338 336 332 334 336 337 337 336 338 336 335 329 332 329 325 326 328 335 339 341 340 339 338 335 334 330 328 324 319 316 312 309 306 304 301 294 291 294 291
297 305 316 323 327 332 334 335 336 337 339 337 338 339 342 342 339 335 332 331 331 333 339 348 349 346 343 341 337 332 330 328 324 321 318 315 312 308 305 300 291 290 294
288 297 308 318 323 329 333 334 335 339 341 341 339 342 345 343 339 336 336 336 333 334 341 344 351 349 342 339 339 336 335 333 330 326 323 322 319 315 308 302 296 289 292
283 289 299 307 316 323 328 332 334 336 338 342 341 340 342 339 338 345 348 354 344 337 337 350 349 349 345 344 342 340 338 339 334 332 331 327 324 319 312 307 304 290 288
275 280 291 300 308 316 323 329 331 334 336 338 339 337 336 333 346 356 1 5 2 351 345 351 353 353 347 344 343 342 340 343 338 335 335 331 327 321 318 315 310 302 297
270 275 283 293 303 310 320 326 335 331 332 334 335 333 336 333 342 357 4 3 3 2 354 355 356 355 353 348 345 348 348 351 346 337 337 333 331 331 321 321 320 312 302
270 275 279 289 297 302 314 324 325 326 328 330 328 326 327 339 348 356 359 2 5 5 1 358 2 357 357 353 349 357 351 351 352 343 336 334 335 338 332 324 323 320 314
272 275 280 284 292 303 311 326 313 322 326 330 324 324 330 335 346 354 358 3 3 2 3 1 0 1 357 355 357 5 6 4 359 354 344 332 334 340 340 334 327 326 322
271 276 280 287 295 303 310 317 306 317 324 325 323 330 333 340 343 349 359 360 3 2 3 5 0 357 354 356 2 0 9 10 2 353 335 339 326 337 345 340 334 330 334
270 276 279 289 298 308 310 311 304 315 321 325 333 341 350 358 1 1 3 359 359 4 3 3 360 356 352 354 357 0 10 20 12 355 339 329 321 348 345 344 341 338 336
276 276 280 288 297 302 312 303 301 315 311 327 336 348 5 6 10 12 12 10 8 8 4 5 359 356 353 352 354 354 2 6 9 344 335 333 322 339 347 349 347 347 345
271 280 288 293 299 301 294 302 308 309 319 331 348 359 2 6 11 14 10 13 14 12 13 14 9 356 353 343 339 340 338 15 359 328 330 338 326 327 338 346 350 347 346
264 276 285 294 291 284 295 312 317 318 323 333 343 350 356 357 355 10 14 17 17 15 16 19 14 4 357 349 344 339 319 25 25 356 327 330 316 308 288 332 343 348 348
265 274 276 274 274 276 304 316 332 333 341 345 349 354 359 1 1 15 15 15 17 16 20 21 14 3 358 359 358 352 348 342 337 349 331 341 322 285 280 336 344 347 337
268 271 268 277 283 293 313 323 331 335 335 344 359 2 2 1 6 16 18 18 14 8 12 11 8 360 357 357 2 2 357 357 354 344 335 330 331 329 337 331 332 342 336